KE2GQQ Weather Reports


time (UTC)temp
C
wind
direction
speed
KPH
gust
KPH
rain 1hr
cm
rain 24hr
cm
rain mn
cm
humidity
%
barometer
mb
20260506050517 15 199 3.2 4.8 0.00 0.00 0.00 80 1010.8
20260506044518 15 197 3.2 8.0 0.00 0.00 0.00 79 1010.9
20260506043517 15 193 3.2 6.4 0.00 0.00 0.00 78 1010.8
20260506042518 16 193 3.2 8.0 0.00 0.00 0.00 78 1010.8
20260506041518 16 195 3.2 8.0 0.00 0.00 0.00 77 1010.7
20260506040616 16 193 3.2 8.0 0.00 0.00 0.00 77 1010.7
20260506035515 16 195 3.2 6.4 0.00 0.00 0.00 76 1010.8
20260506034515 16 199 3.2 8.0 0.00 0.00 0.00 75 1010.8
20260506033515 17 203 4.8 9.7 0.00 0.00 0.00 74 1010.7
20260506032515 17 209 4.8 8.0 0.00 0.00 0.00 73 1010.5
20260506031516 17 215 4.8 9.7 0.00 0.00 0.00 71 1010.4
20260506030536 17 201 3.2 6.4 0.00 0.00 0.00 70 1010.5
20260506025516 17 206 3.2 9.7 0.00 0.00 0.00 70 1010.6
20260506024516 17 211 3.2 9.7 0.00 0.00 0.00 69 1010.6
20260506023516 17 210 3.2 8.0 0.00 0.00 0.00 68 1010.6
20260506022537 18 207 3.2 6.4 0.00 0.00 0.00 68 1010.5
20260506021516 18 213 4.8 9.7 0.00 0.00 0.00 67 1010.5
20260506020517 18 214 4.8 11.3 0.00 0.00 0.00 66 1010.5
20260506015517 18 213 3.2 11.3 0.00 0.00 0.00 66 1010.4
20260506014517 18 210 3.2 9.7 0.00 0.00 0.00 64 1010.3
20260506013517 19 213 4.8 8.0 0.00 0.00 0.00 64 1010.1
20260506012517 19 214 4.8 11.3 0.00 0.00 0.00 64 1010.1
20260506011521 19 213 3.2 8.0 0.00 0.00 0.00 63 1009.9
20260506010536 20 213 4.8 11.3 0.00 0.00 0.00 63 1009.8
20260506005516 20 214 4.8 9.7 0.00 0.00 0.00 62 1009.7
20260506004516 20 216 6.4 12.9 0.00 0.00 0.00 62 1009.5
20260506003536 20 215 4.8 11.3 0.00 0.00 0.00 62 1009.5
20260506002516 20 213 4.8 12.9 0.00 0.00 0.00 62 1009.4
20260506001516 19 214 4.8 8.0 0.00 0.00 0.00 64 1009.3
20260506000516 19 213 4.8 9.7 0.00 0.00 0.00 63 1009.3
20260505235517 19 213 4.8 11.3 0.00 0.00 0.00 63 1009.2
20260505234516 19 209 4.8 12.9 0.00 0.00 0.00 63 1009.1
20260505233538 19 215 3.2 6.4 0.00 0.00 0.00 63 1008.9
20260505232537 19 211 3.2 9.7 0.00 0.00 0.00 63 1008.8
20260505231537 19 216 4.8 9.7 0.00 0.00 0.00 63 1008.7
20260505230517 20 213 4.8 12.9 0.00 0.00 0.00 63 1008.5
20260505225517 20 213 4.8 11.3 0.00 0.00 0.00 62 1008.3
20260505224517 20 223 4.8 11.3 0.00 0.00 0.00 61 1008.2
20260505223538 20 216 4.8 11.3 0.00 0.00 0.00 61 1008.3
20260505222558 21 217 4.8 12.9 0.00 0.00 0.00 60 1008.2
20260505221518 21 225 4.8 12.9 0.00 0.00 0.00 59 1008.0
20260505220518 21 223 6.4 12.9 0.00 0.00 0.00 59 1008.0
20260505215515 21 223 4.8 9.7 0.00 0.00 0.00 58 1008.0
20260505214516 22 220 4.8 9.7 0.00 0.00 0.00 57 1008.0
20260505213536 22 223 4.8 14.5 0.00 0.00 0.00 56 1007.8
20260505212516 22 219 4.8 12.9 0.00 0.00 0.00 56 1007.9
20260505211516 22 220 4.8 12.9 0.00 0.00 0.00 56 1007.9
20260505210516 22 221 4.8 17.7 0.00 0.00 0.00 56 1007.7
20260505205516 22 220 3.2 9.7 0.00 0.00 0.00 55 1007.8
20260505204517 22 222 4.8 9.7 0.00 0.00 0.00 55 1007.8
20260505203516 22 218 6.4 12.9 0.00 0.00 0.00 55 1007.8
20260505202516 23 211 4.8 11.3 0.00 0.00 0.00 55 1007.9
20260505201517 23 216 4.8 11.3 0.00 0.00 0.00 54 1008.0
20260505200518 23 216 6.4 12.9 0.00 0.00 0.00 54 1008.1
20260505195557 23 218 4.8 11.3 0.00 0.00 0.00 54 1008.2
20260505194517 23 215 3.2 8.0 0.00 0.00 0.00 55 1008.3
20260505193537 23 216 4.8 12.9 0.00 0.00 0.00 55 1008.7
20260505192518 23 218 4.8 9.7 0.00 0.00 0.00 55 1008.6
20260505191518 23 218 4.8 12.9 0.00 0.00 0.00 54 1008.9
20260505190518 23 220 3.2 6.4 0.00 0.00 0.00 54 1009.1
20260505185518 23 224 4.8 11.3 0.00 0.00 0.00 54 1009.2
20260505184515 23 188 1.6 4.8 0.00 0.00 0.00 55 1009.3
20260505183515 23 203 1.6 6.4 0.00 0.00 0.00 56 1009.4
20260505182515 23 217 4.8 12.9 0.00 0.00 0.00 56 1009.5
20260505181516 23 214 3.2 8.0 0.00 0.00 0.00 55 1009.4
20260505180535 24 206 3.2 6.4 0.00 0.00 0.00 54 1009.5
20260505175516 24 220 3.2 9.7 0.00 0.00 0.00 54 1009.6
20260505174516 24 226 3.2 8.0 0.00 0.00 0.00 53 1009.7
20260505173516 25 218 4.8 8.0 0.00 0.00 0.00 52 1009.7
20260505172556 25 217 3.2 11.3 0.00 0.00 0.00 50 1009.7
20260505171537 25 209 1.6 9.7 0.00 0.00 0.00 52 1009.8
20260505170516 25 218 1.6 6.4 0.00 0.00 0.00 51 1009.8
20260505165517 25 218 3.2 8.0 0.00 0.00 0.00 51 1010.0
20260505164517 24 217 3.2 8.0 0.00 0.00 0.00 52 1010.1
20260505163517 24 218 3.2 8.0 0.00 0.00 0.00 51 1010.2
20260505162517 24 219 3.2 8.0 0.00 0.00 0.00 51 1010.4
20260505161517 24 212 3.2 11.3 0.00 0.00 0.00 51 1010.4
20260505160537 23 215 3.2 11.3 0.00 0.00 0.00 52 1010.5
20260505152518 23 215 3.2 9.7 0.00 0.00 0.00 55 1010.9
20260505151515 22 209 1.6 11.3 0.00 0.00 0.00 56 1011.0
20260505150515 22 222 3.2 6.4 0.00 0.00 0.00 56 1011.2
20260505140517 22 221 1.6 8.0 0.00 0.00 0.00 57 1011.1
20260505124517 18 213 3.2 6.4 0.00 0.00 0.00 65 1011.1
20260505123517 18 204 3.2 6.4 0.00 0.00 0.00 66 1010.9
20260505122518 18 203 1.6 4.8 0.00 0.00 0.00 67 1011.0
20260505121558 17 204 3.2 6.4 0.00 0.00 0.00 68 1011.0
20260505120518 16 203 3.2 8.0 0.00 0.00 0.00 72 1011.0
20260505115518 15 193 3.2 6.4 0.00 0.00 0.00 75 1011.1
20260505114515 15 188 1.6 3.2 0.00 0.00 0.00 78 1011.1
20260505113518 15 187 1.6 4.8 0.00 0.00 0.00 79 1011.1
20260505112516 14 208 1.6 6.4 0.00 0.00 0.00 79 1011.3
20260505111516 13 212 3.2 6.4 0.00 0.00 0.00 81 1011.3
20260505110516 13 192 1.6 3.2 0.00 0.00 0.00 84 1011.3
20260505101516 12 187 1.6 3.2 0.00 0.00 0.00 87 1010.7
20260505100517 12 192 0.0 3.2 0.00 0.00 0.00 86 1010.3
20260505095516 12 188 0.0 3.2 0.00 0.00 0.00 86 1010.2
20260505094517 12 198 1.6 4.8 0.00 0.00 0.00 86 1010.2
20260505093517 12 188 1.6 3.2 0.00 0.00 0.00 86 1010.3
20260505092517 12 198 1.6 3.2 0.00 0.00 0.00 87 1010.3
20260505091517 12 196 1.6 4.8 0.00 0.00 0.00 87 1010.3
20260505090517 12 195 1.6 3.2 0.00 0.00 0.00 85 1010.3
20260505085518 12 187 1.6 3.2 0.00 0.00 0.00 85 1010.4
20260505084518 12 189 1.6 3.2 0.00 0.00 0.00 85 1010.3
20260505083517 12 180 0.0 3.2 0.00 0.00 0.00 85 1010.3
20260505082515 12 191 1.6 3.2 0.00 0.00 0.00 85 1010.3
20260505081515 12 194 1.6 3.2 0.00 0.00 0.00 86 1010.3
20260505080515 12 192 1.6 3.2 0.00 0.00 0.00 86 1010.3
20260505075516 12 201 1.6 3.2 0.00 0.00 0.00 86 1010.3
20260505074516 12 188 1.6 3.2 0.00 0.00 0.00 87 1010.3
20260505073515 12 193 1.6 3.2 0.00 0.00 0.00 87 1010.2
20260505072516 12 188 1.6 4.8 0.00 0.00 0.00 86 1010.2
20260505071516 12 198 0.0 3.2 0.00 0.00 0.00 85 1010.2
20260505070516 12 183 1.6 4.8 0.00 0.00 0.00 85 1010.1
20260505065516 12 187 1.6 3.2 0.00 0.00 0.00 84 1010.2
20260505064537 12 200 1.6 4.8 0.00 0.00 0.00 83 1010.2
20260505063517 13 195 1.6 3.2 0.00 0.00 0.00 83 1010.3
20260505062517 13 193 3.2 4.8 0.00 0.00 0.00 82 1010.3
20260505061517 13 196 3.2 4.8 0.00 0.00 0.00 81 1010.4
20260505060537 13 203 3.2 6.4 0.00 0.00 0.00 79 1010.3
20260505055517 13 200 3.2 4.8 0.00 0.00 0.00 77 1010.4
20260505054517 14 197 1.6 4.8 0.00 0.00 0.00 76 1010.5
20260505053517 14 200 3.2 4.8 0.00 0.00 0.00 74 1010.5
20260505052518 15 188 3.2 8.0 0.00 0.00 0.00 73 1010.6
20260505051518 15 214 3.2 8.0 0.00 0.00 0.00 71 1010.5